Time,TemperatureF,DewpointF,PressureIn,WindDirection,WindDirectionDegrees,WindSpeedMPH,WindSpeedGustMPH,Humidity,HourlyPrecipIn,Conditions,Clouds,dailyrainin,SoftwareType,DateUTC
2013-07-31 00:12:00,69.0,64.0,30.22,SSW,200,0.0,0.0,84,0.00,,,0.00,,2013-07-31 04:12:00,
2013-07-31 00:22:00,69.0,64.0,30.22,SSW,200,0.0,0.0,85,0.00,,,0.00,,2013-07-31 04:22:00,
2013-07-31 00:32:00,69.0,64.0,30.22,SSW,200,0.0,0.0,85,0.00,,,0.00,,2013-07-31 04:32:00,
2013-07-31 00:52:00,68.0,64.0,30.21,SSW,200,0.0,0.0,87,0.00,,,0.00,,2013-07-31 04:52:00,
2013-07-31 01:02:00,68.0,64.0,30.21,SSW,200,0.0,0.0,87,0.00,,,0.00,,2013-07-31 05:02:00,
2013-07-31 01:12:00,67.0,64.0,30.21,SSW,200,0.0,0.0,90,0.01,,,0.01,,2013-07-31 05:12:00,
2013-07-31 01:22:00,67.0,64.0,30.21,SSW,200,0.0,0.0,90,0.01,,,0.01,,2013-07-31 05:22:00,
2013-07-31 01:32:00,67.0,65.0,30.20,SSW,200,0.0,0.0,92,0.01,,,0.01,,2013-07-31 05:32:00,
2013-07-31 01:42:00,67.0,65.0,30.20,SSW,200,0.0,0.0,93,0.01,,,0.01,,2013-07-31 05:42:00,
2013-07-31 01:52:00,67.0,65.0,30.20,SSW,200,0.0,0.0,93,0.01,,,0.01,,2013-07-31 05:52:00,
2013-07-31 02:02:00,66.0,64.0,30.19,SSW,200,0.0,0.0,94,0.01,,,0.02,,2013-07-31 06:02:00,
2013-07-31 02:12:00,66.0,64.0,30.19,SSW,200,0.0,0.0,94,0.01,,,0.02,,2013-07-31 06:12:00,
2013-07-31 02:22:00,66.0,64.0,30.19,SSW,200,0.0,0.0,94,0.01,,,0.02,,2013-07-31 06:22:00,
2013-07-31 02:32:00,66.0,64.0,30.18,SSW,200,0.0,0.0,94,0.01,,,0.02,,2013-07-31 06:32:00,
2013-07-31 02:53:00,66.0,64.0,30.18,SSW,200,0.0,0.0,94,0.01,,,0.02,,2013-07-31 06:53:00,
2013-07-31 03:02:00,66.0,65.0,30.18,SSW,200,0.0,0.0,95,0.00,,,0.02,,2013-07-31 07:02:00,
2013-07-31 03:12:00,66.0,65.0,30.17,SSW,200,0.0,0.0,95,0.00,,,0.02,,2013-07-31 07:12:00,
2013-07-31 03:22:00,66.0,65.0,30.17,SSW,200,0.0,0.0,95,0.00,,,0.02,,2013-07-31 07:22:00,
2013-07-31 03:32:00,65.0,64.0,30.17,SSW,200,0.0,0.0,95,0.00,,,0.02,,2013-07-31 07:32:00,
2013-07-31 03:43:00,65.0,64.0,30.17,SSW,200,0.0,0.0,95,0.00,,,0.02,,2013-07-31 07:43:00,
2013-07-31 03:52:00,65.0,64.0,30.17,SSW,200,0.0,0.0,95,0.00,,,0.02,,2013-07-31 07:52:00,
2013-07-31 04:02:00,65.0,64.0,30.16,SSW,200,0.0,0.0,95,0.00,,,0.02,,2013-07-31 08:02:00,
2013-07-31 04:12:00,65.0,64.0,30.16,SSW,200,0.0,0.0,95,0.00,,,0.02,,2013-07-31 08:12:00,
2013-07-31 04:22:00,65.0,64.0,30.16,SSW,200,0.0,0.0,95,0.00,,,0.02,,2013-07-31 08:22:00,
2013-07-31 04:53:00,65.0,64.0,30.16,SSW,200,0.0,0.0,95,0.00,,,0.02,,2013-07-31 08:53:00,
2013-07-31 05:02:00,65.0,64.0,30.16,SSW,200,0.0,0.0,96,0.00,,,0.02,,2013-07-31 09:02:00,
2013-07-31 05:12:00,65.0,64.0,30.16,SSW,200,0.0,0.0,96,0.00,,,0.02,,2013-07-31 09:12:00,
2013-07-31 05:22:00,65.0,64.0,30.15,SSW,200,0.0,0.0,96,0.00,,,0.02,,2013-07-31 09:22:00,
2013-07-31 05:32:00,65.0,64.0,30.15,SSW,200,0.0,0.0,96,0.00,,,0.02,,2013-07-31 09:32:00,
2013-07-31 05:43:00,65.0,64.0,30.15,SSW,200,0.0,0.0,96,0.00,,,0.02,,2013-07-31 09:43:00,
2013-07-31 05:52:00,65.0,64.0,30.15,SSW,200,0.0,0.0,96,0.00,,,0.02,,2013-07-31 09:52:00,
2013-07-31 06:22:00,65.0,64.0,30.15,SSW,200,0.0,0.0,96,0.00,,,0.02,,2013-07-31 10:22:00,
2013-07-31 06:32:00,65.0,64.0,30.15,SSW,200,0.0,0.0,96,0.00,,,0.02,,2013-07-31 10:32:00,
2013-07-31 06:44:00,65.0,64.0,30.15,SSW,200,0.0,0.0,96,0.00,,,0.02,,2013-07-31 10:44:00,
2013-07-31 06:52:00,65.0,64.0,30.15,SSW,200,0.0,0.0,96,0.00,,,0.02,,2013-07-31 10:52:00,
2013-07-31 07:12:00,65.0,64.0,30.16,SSW,200,0.0,0.0,96,0.00,,,0.02,,2013-07-31 11:12:00,
2013-07-31 07:22:00,64.0,63.0,30.16,SSW,200,0.0,0.0,96,0.00,,,0.02,,2013-07-31 11:22:00,
2013-07-31 07:43:00,65.0,64.0,30.16,North,7,0.0,1.0,97,0.00,,,0.02,,2013-07-31 11:43:00,
2013-07-31 07:52:00,65.0,64.0,30.16,North,7,0.0,1.0,97,0.00,,,0.02,,2013-07-31 11:52:00,
2013-07-31 08:02:00,65.0,64.0,30.16,South,176,0.0,3.0,97,0.00,,,0.02,,2013-07-31 12:02:00,
2013-07-31 08:22:00,65.0,64.0,30.16,North,5,0.0,3.0,96,0.00,,,0.02,,2013-07-31 12:22:00,
2013-07-31 08:33:00,65.0,64.0,30.16,SSW,195,0.0,4.0,96,0.01,,,0.03,,2013-07-31 12:33:00,
2013-07-31 08:43:00,65.0,64.0,30.16,SSW,195,2.0,8.0,96,0.02,,,0.04,,2013-07-31 12:43:00,
2013-07-31 08:52:00,65.0,64.0,30.16,SSW,195,2.0,8.0,96,0.02,,,0.04,,2013-07-31 12:52:00,
2013-07-31 09:22:00,65.0,64.0,30.16,SSW,198,0.0,2.0,96,0.03,,,0.05,,2013-07-31 13:22:00,
2013-07-31 09:33:00,65.0,64.0,30.16,SSW,205,1.0,5.0,96,0.02,,,0.05,,2013-07-31 13:33:00,
2013-07-31 09:43:00,65.0,64.0,30.16,SSW,205,1.0,5.0,96,0.02,,,0.05,,2013-07-31 13:43:00,
2013-07-31 10:12:00,66.0,65.0,30.16,South,169,0.0,5.0,96,0.00,,,0.05,,2013-07-31 14:12:00,
2013-07-31 10:23:00,66.0,65.0,30.16,SSE,166,0.0,1.0,96,0.00,,,0.05,,2013-07-31 14:23:00,
2013-07-31 10:43:00,67.0,66.0,30.15,SSE,166,0.0,0.0,96,0.00,,,0.05,,2013-07-31 14:43:00,
2013-07-31 10:53:00,67.0,66.0,30.15,SSE,166,0.0,0.0,96,0.00,,,0.05,,2013-07-31 14:53:00,
2013-07-31 11:12:00,67.0,66.0,30.15,SSE,166,0.0,1.0,96,0.00,,,0.05,,2013-07-31 15:12:00,
2013-07-31 11:22:00,68.0,67.0,30.14,SSE,166,0.0,1.0,97,0.00,,,0.05,,2013-07-31 15:22:00,
2013-07-31 11:33:00,68.0,67.0,30.14,SSE,166,0.0,1.0,96,0.00,,,0.05,,2013-07-31 15:33:00,
2013-07-31 11:43:00,69.0,68.0,30.13,SSE,166,0.0,2.0,96,0.00,,,0.05,,2013-07-31 15:43:00,
2013-07-31 11:53:00,69.0,68.0,30.13,SSE,166,0.0,2.0,96,0.00,,,0.05,,2013-07-31 15:53:00,
2013-07-31 12:02:00,70.0,68.0,30.13,ESE,115,0.0,3.0,92,0.00,,,0.05,,2013-07-31 16:02:00,
2013-07-31 12:12:00,70.0,68.0,30.13,ESE,115,0.0,3.0,92,0.00,,,0.05,,2013-07-31 16:12:00,
2013-07-31 12:22:00,70.0,66.0,30.12,SW,225,0.0,3.0,88,0.00,,,0.05,,2013-07-31 16:22:00,
2013-07-31 12:33:00,70.0,67.0,30.12,WNW,300,0.0,2.0,89,0.00,,,0.05,,2013-07-31 16:33:00,
2013-07-31 12:44:00,69.0,66.0,30.12,SE,141,0.0,4.0,89,0.00,,,0.05,,2013-07-31 16:44:00,
2013-07-31 12:52:00,69.0,66.0,30.12,SE,141,0.0,4.0,89,0.00,,,0.05,,2013-07-31 16:52:00,
2013-07-31 13:22:00,70.0,67.0,30.11,WNW,301,0.0,3.0,91,0.00,,,0.05,,2013-07-31 17:22:00,
2013-07-31 13:33:00,70.0,67.0,30.11,ESE,106,0.0,1.0,90,0.00,,,0.05,,2013-07-31 17:33:00,
2013-07-31 13:43:00,70.0,66.0,30.11,South,169,0.0,3.0,88,0.02,,,0.07,,2013-07-31 17:43:00,
2013-07-31 13:53:00,70.0,66.0,30.11,South,169,0.0,3.0,88,0.02,,,0.07,,2013-07-31 17:53:00,
2013-07-31 14:22:00,69.0,67.0,30.10,NW,314,0.0,1.0,93,0.02,,,0.07,,2013-07-31 18:22:00,
2013-07-31 14:33:00,69.0,66.0,30.09,South,188,0.0,2.0,89,0.02,,,0.07,,2013-07-31 18:33:00,
2013-07-31 14:43:00,70.0,67.0,30.09,South,191,0.0,0.0,90,0.00,,,0.07,,2013-07-31 18:43:00,
2013-07-31 14:52:00,70.0,67.0,30.09,South,191,0.0,0.0,90,0.00,,,0.07,,2013-07-31 18:52:00,
2013-07-31 15:03:00,69.0,66.0,30.08,South,177,0.0,5.0,89,0.00,,,0.07,,2013-07-31 19:03:00,
2013-07-31 15:12:00,69.0,66.0,30.08,South,177,0.0,5.0,89,0.00,,,0.07,,2013-07-31 19:12:00,
2013-07-31 15:22:00,69.0,66.0,30.08,SSE,150,0.0,6.0,89,0.00,,,0.07,,2013-07-31 19:22:00,
2013-07-31 15:33:00,69.0,66.0,30.08,SE,145,0.0,7.0,89,0.00,,,0.07,,2013-07-31 19:33:00,
2013-07-31 15:52:00,68.0,65.0,30.08,SSE,153,0.0,3.0,89,0.00,,,0.07,,2013-07-31 19:52:00,
2013-07-31 16:12:00,68.0,64.0,30.06,South,174,2.0,13.0,87,0.00,,,0.07,,2013-07-31 20:12:00,
2013-07-31 16:23:00,68.0,64.0,30.06,West,272,1.0,10.0,87,0.00,,,0.07,,2013-07-31 20:23:00,
2013-07-31 16:32:00,67.0,63.0,30.06,SSE,163,0.0,7.0,88,0.00,,,0.07,,2013-07-31 20:32:00,
2013-07-31 16:43:00,67.0,63.0,30.06,SSE,165,0.0,7.0,88,0.00,,,0.07,,2013-07-31 20:43:00,
2013-07-31 16:52:00,67.0,63.0,30.06,SSE,165,0.0,7.0,88,0.00,,,0.07,,2013-07-31 20:52:00,
2013-07-31 17:02:00,68.0,64.0,30.05,SSW,199,0.0,5.0,88,0.00,,,0.07,,2013-07-31 21:02:00,
2013-07-31 17:13:00,68.0,64.0,30.05,SSW,199,0.0,5.0,88,0.00,,,0.07,,2013-07-31 21:13:00,
2013-07-31 17:22:00,68.0,65.0,30.04,NW,322,0.0,3.0,89,0.00,,,0.07,,2013-07-31 21:22:00,
2013-07-31 17:32:00,69.0,65.0,30.03,SSE,164,0.0,7.0,88,0.00,,,0.07,,2013-07-31 21:32:00,
2013-07-31 17:53:00,69.0,65.0,30.03,SW,231,0.0,2.0,88,0.00,,,0.07,,2013-07-31 21:53:00,
2013-07-31 18:02:00,70.0,67.0,30.03,SW,231,0.0,1.0,91,0.00,,,0.07,,2013-07-31 22:02:00,
2013-07-31 18:13:00,70.0,67.0,30.03,SW,231,0.0,1.0,91,0.00,,,0.07,,2013-07-31 22:13:00,
2013-07-31 18:22:00,70.0,66.0,30.02,SSW,199,0.0,3.0,88,0.00,,,0.07,,2013-07-31 22:22:00,
2013-07-31 18:43:00,70.0,66.0,30.02,SSW,199,0.0,0.0,86,0.00,,,0.07,,2013-07-31 22:43:00,
2013-07-31 18:53:00,70.0,66.0,30.02,SSW,199,0.0,0.0,86,0.00,,,0.07,,2013-07-31 22:53:00,
2013-07-31 19:02:00,70.0,66.0,30.01,SSW,199,0.0,3.0,88,0.00,,,0.07,,2013-07-31 23:02:00,
2013-07-31 19:22:00,70.0,66.0,30.01,SSW,199,0.0,0.0,87,0.00,,,0.07,,2013-07-31 23:22:00,
2013-07-31 19:32:00,70.0,66.0,30.01,South,184,0.0,5.0,87,0.00,,,0.07,,2013-07-31 23:32:00,
2013-07-31 19:42:00,69.0,66.0,30.01,South,184,0.0,1.0,90,0.00,,,0.07,,2013-07-31 23:42:00,
2013-07-31 19:52:00,69.0,66.0,30.01,South,184,0.0,1.0,90,0.00,,,0.07,,2013-07-31 23:52:00,
2013-07-31 20:02:00,69.0,66.0,30.01,South,184,0.0,0.0,89,0.00,,,0.07,,2013-08-01 00:02:00,
2013-07-31 20:12:00,69.0,66.0,30.02,South,184,0.0,0.0,91,0.00,,,0.07,,2013-08-01 00:12:00,
2013-07-31 20:22:00,69.0,66.0,30.02,South,184,0.0,0.0,91,0.00,,,0.07,,2013-08-01 00:22:00,
2013-07-31 20:32:00,69.0,66.0,30.03,South,184,0.0,0.0,91,0.00,,,0.07,,2013-08-01 00:32:00,
2013-07-31 20:43:00,68.0,65.0,30.04,South,184,0.0,0.0,91,0.00,,,0.07,,2013-08-01 00:43:00,
2013-07-31 20:52:00,68.0,65.0,30.04,South,184,0.0,0.0,91,0.00,,,0.07,,2013-08-01 00:52:00,
2013-07-31 21:03:00,68.0,65.0,30.04,South,184,0.0,0.0,91,0.00,,,0.07,,2013-08-01 01:03:00,
2013-07-31 21:12:00,68.0,65.0,30.04,South,184,0.0,0.0,91,0.00,,,0.07,,2013-08-01 01:12:00,
2013-07-31 21:22:00,68.0,65.0,30.04,South,184,0.0,0.0,91,0.00,,,0.07,,2013-08-01 01:22:00,
2013-07-31 21:33:00,68.0,66.0,30.05,South,184,0.0,0.0,92,0.00,,,0.07,,2013-08-01 01:33:00,
2013-07-31 21:43:00,67.0,65.0,30.05,South,184,0.0,0.0,92,0.00,,,0.07,,2013-08-01 01:43:00,
2013-07-31 21:53:00,67.0,65.0,30.05,South,184,0.0,0.0,92,0.00,,,0.07,,2013-08-01 01:53:00,
2013-07-31 22:02:00,67.0,65.0,30.05,South,184,0.0,0.0,92,0.00,,,0.07,,2013-08-01 02:02:00,
2013-07-31 22:12:00,67.0,65.0,30.05,South,184,0.0,0.0,92,0.00,,,0.07,,2013-08-01 02:12:00,
2013-07-31 22:22:00,67.0,65.0,30.05,South,184,0.0,0.0,93,0.00,,,0.07,,2013-08-01 02:22:00,
2013-07-31 22:43:00,67.0,65.0,30.05,South,184,0.0,0.0,93,0.00,,,0.07,,2013-08-01 02:43:00,
2013-07-31 22:52:00,67.0,65.0,30.04,South,184,0.0,0.0,93,0.00,,,0.07,,2013-08-01 02:52:00,
2013-07-31 23:02:00,67.0,65.0,30.04,South,184,0.0,3.0,94,0.01,,,0.08,,2013-08-01 03:02:00,
2013-07-31 23:12:00,67.0,65.0,30.04,South,184,0.0,3.0,94,0.01,,,0.08,,2013-08-01 03:12:00,
2013-07-31 23:22:00,66.0,64.0,30.03,South,184,0.0,0.0,94,0.01,,,0.08,,2013-08-01 03:22:00,
2013-07-31 23:43:00,66.0,65.0,30.04,South,184,0.0,0.0,95,0.00,,,0.08,,2013-08-01 03:43:00,
2013-07-31 23:53:00,66.0,65.0,30.04,South,184,0.0,0.0,95,0.00,,,0.08,,2013-08-01 03:53:00,